Flag for Qatar Weather past 2 weeks in Al-Jamiliyah, Qatar

Now
76 °F

Clear.


Feels Like: 77 °F
Forecast: 63 / 78 °F
Wind: 8 mph from Southwest

Location: Al Udeid

Current Time: Mar 1, 2015 at 11:35:10 AM

Latest Report: Mar 1, 2015 at 10:58 AM


Visibility: N/A

Pressure: 29.98 "Hg

Humidity: 27%

Dew point: 40 °F

Location of Al-JamiliyahLocation

Historic Weather in Al-Jamiliyah — Graph

°F

Al-Jamiliyah temperature yesterday

Maximum temperature yesterday: 77 °F (at 1:58 PM)
Minimum temperature yesterday: 54 °F (at 4:58 AM)
Average temperature yesterday: 64 °F

Past Weeks' High & Low Weather Summary

 TemperatureHumidityPressure
High93 °F (Feb 20, 3:58 PM)100% (Feb 17, 4:59 AM)30.19 "Hg (Feb 17, 4:59 AM)
Low48 °F (Feb 24, 5:58 AM)17% (Feb 26, 1:58 PM)29.56 "Hg (Feb 20, 2:58 PM)
Average67 °F60%29.95 "Hg
* Reported Feb 14 9:58 AM — Mar 1 9:58 AM, Al-Jamiliyah, Weather by CustomWeather, © 2015

Note: Actual official high and low records may vary slightly from our data, if they occured in-between our weather recording intervals... More about our weather records

Advertising

Al-Jamiliyah weather history for previous 24 hours

 ConditionsComfort  
Time TempWeatherWind HumidityBarometerVisibility
9:58 AM
Sun, Mar 1
72 °FClear.10 mph36%29.99 "HgN/A
8:58 AM69 °FClear.10 mph46%30.01 "HgN/A
7:58 AM63 °FClear.10 mph66%29.99 "HgN/A
6:58 AM56 °FClear.7 mph84%29.98 "HgN/A
5:58 AM54 °FClear.7 mph92%29.96 "HgN/A
4:58 AM54 °FClear.7 mph91%29.96 "HgN/A
3:58 AM55 °FClear.3 mph83%29.94 "HgN/A
2:58 AM55 °FClear.6 mph78%29.94 "HgN/A
1:58 AM56 °FClear.6 mph78%29.96 "HgN/A
12:58 AM57 °FSunny.6 mph72%29.98 "HgN/A
11:58 PM
Sat, Feb 28
59 °FSunny.2 mph69%29.99 "HgN/A
10:58 PM61 °FSunny.3 mph68%29.99 "HgN/A
9:58 PM62 °FSunny.7 mph66%30.01 "HgN/A
8:58 PM66 °FSunny.6 mph60%30.01 "HgN/A
7:58 PM65 °FSunny.5 mph59%30.03 "HgN/A
6:58 PM67 °FSunny.7 mph54%30.01 "HgN/A
5:58 PM69 °FSunny.8 mph49%30.00 "HgN/A
4:58 PM72 °FSunny.10 mph45%29.98 "HgN/A
3:58 PM74 °FSunny.9 mph43%29.96 "HgN/A
2:58 PM76 °FSunny.3 mph37%29.98 "HgN/A
1:58 PM77 °FClear.No wind27%29.97 "HgN/A
12:58 PM76 °FPassing clouds.1 mph35%30.01 "HgN/A
11:58 AM75 °FPassing clouds.5 mph37%30.03 "HgN/A
Weather by CustomWeather, © 2015

See weather overviewHow to use our weather pages